Hourly Data Report for September 25, 2017

All times are specified in Local Standard Time (LST). Add 1 hour to adjust for Daylight Saving Time where and when it is observed.

FREDERICTON
NEW BRUNSWICK

45°52'08.000" N
66°32'14.000" W
20.70 m
8101505
71700
YFC

Download Data

Hourly Data (September 2017)
Hourly Data Report for September 25, 2017
Temp Definition
°C
Dew Point Temp Definition
°C
Rel Hum Definition
%
Wind Dir Definition
10's deg

Wind Spd Definition
km/h
Visibility Definition
km
Stn Press Definition
kPa
Hmdx Definition


Wind Chill Definition


Weather Definition


TIME
00:00 Legend Double Dagger 19.9 15.9 77 3 13 16.1 101.48     LegendNANA
01:00 Legend Double Dagger 18.8 15.3 80 5 11 16.1 101.51     LegendNANA
02:00 Legend Double Dagger 18.3 15.4 83 10 9 16.1 101.47     LegendNANA
03:00 Legend Double Dagger 17.0 14.7 86 7 8 16.1 101.50     LegendNANA
04:00 Legend Double Dagger 16.3 14.9 91 2 9 16.1 101.55     LegendNANA
05:00 Legend Double Dagger 16.3 14.3 88 3 11 16.1 101.61     LegendNANA
06:00 Legend Double Dagger 15.3 13.7 90 2 11 16.1 101.66     LegendNANA
07:00 Legend Double Dagger 14.9 13.5 91 3 11 16.1 101.72     LegendNANA
08:00 Legend Double Dagger 16.3 14.0 86 4 8 16.1 101.73     LegendNANA
09:00 Legend Double Dagger 17.6 14.5 82 LegendMM 4 16.1 101.70     LegendNANA
10:00 Legend Double Dagger 19.5 15.0 75 4 8 16.1 101.72     LegendNANA
11:00 Legend Double Dagger 21.7 15.3 66 LegendMM 8 16.1 101.68 26   LegendNANA
12:00 Legend Double Dagger 24.1 15.9 60 LegendMM 8 16.1 101.61 29   LegendNANA
13:00 Legend Double Dagger 26.8 16.7 54 15 13 16.1 101.49 32   LegendNANA
14:00 Legend Double Dagger 28.3 17.7 52 17 9 16.1 101.44 34   LegendNANA
15:00 Legend Double Dagger 29.8 18.2 49 20 17 16.1 101.36 36   LegendNANA
16:00 Legend Double Dagger 30.0 18.2 49 21 18 16.1 101.32 36   LegendNANA
17:00 Legend Double Dagger 28.6 18.6 54 21 18 16.1 101.31 35   LegendNANA
18:00 Legend Double Dagger 26.2 18.5 62 19 15 16.1 101.31 33   LegendNANA
19:00 Legend Double Dagger 23.5 18.5 73 18 15 16.1 101.32 30   LegendNANA
20:00 Legend Double Dagger 21.7 18.2 80 19 15 16.1 101.34 28   LegendNANA
21:00 Legend Double Dagger 21.1 17.8 81 20 17 16.1 101.32 27   LegendNANA
22:00 Legend Double Dagger 20.3 17.2 82 21 22 16.1 101.31 26   LegendNANA
23:00 Legend Double Dagger 19.4 16.9 85 20 18 16.1 101.27     LegendNANA

Notes on Data Quality.

Legend

  • E = Estimated
  • M = Missing
  • NA = Not Available
  • ‡ = Partner data that is not subject to review by the National Climate Archives
Date modified: